Satellite: LO-19
Catalog number: 20442
Epoch time:      05237.67758878
Element set:     472
Inclination:      098.2182 deg
RA of node:       268.0969 deg
Eccentricity:    0.0011919
Arg of perigee:   358.8147 deg
Mean anomaly:     001.2947 deg
Mean motion:   14.31932511 rev/day
Decay rate:      -4.78e-06 rev/day^2
Epoch rev:           81416
Checksum:              338

Satellite: UO-22
Catalog number: 21575
Epoch time:      05236.80865159
Element set:    0489
Inclination:      098.2498 deg
RA of node:       199.5792 deg
Eccentricity:    0.0006486
Arg of perigee:   238.6974 deg
Mean anomaly:     121.3579 deg
Mean motion:   14.39502258 rev/day
Decay rate:        5.0e-07 rev/day^2
Epoch rev:           74037
Checksum:              352

Satellite: KO-23
Catalog number: 22077
Epoch time:      05237.48762236
Element set:     561
Inclination:      066.0906 deg
RA of node:       001.3213 deg
Eccentricity:    0.0014255
Arg of perigee:   240.2759 deg
Mean anomaly:     119.6834 deg
Mean motion:   12.86432348 rev/day
Decay rate:       -3.7e-07 rev/day^2
Epoch rev:           61250
Checksum:              282

Satellite: AO-27
Catalog number: 22825
Epoch time:      05236.80832270
Element set:    0202
Inclination:      098.2546 deg
RA of node:       228.6904 deg
Eccentricity:    0.0009363
Arg of perigee:   063.2848 deg
Mean anomaly:     296.9284 deg
Mean motion:   14.29140937 rev/day
Decay rate:        3.6e-07 rev/day^2
Epoch rev:           62102
Checksum:              306

Satellite: IO-26
Catalog number: 22826
Epoch time:      05236.89839378
Element set:    0881
Inclination:      098.2502 deg
RA of node:       230.0520 deg
Eccentricity:    0.0010018
Arg of perigee:   059.4055 deg
Mean anomaly:     300.8110 deg
Mean motion:   14.29381728 rev/day
Decay rate:      -1.32e-06 rev/day^2
Epoch rev:           62110
Checksum:              277

Satellite: KO-25
Catalog number: 22828
Epoch time:      05236.60076315
Element set:     128
Inclination:      098.2461 deg
RA of node:       229.9548 deg
Eccentricity:    0.0011031
Arg of perigee:   036.6805 deg
Mean anomaly:     323.5129 deg
Mean motion:   14.29694067 rev/day
Decay rate:        1.5e-07 rev/day^2
Epoch rev:           58929
Checksum:              310

Satellite: PO-28
Catalog number: 22829
Epoch time:      05236.05476433
Element set:     169
Inclination:      098.2406 deg
RA of node:       230.4407 deg
Eccentricity:    0.0010607
Arg of perigee:   039.9199 deg
Mean anomaly:     320.2790 deg
Mean motion:   14.30059809 rev/day
Decay rate:       -4.0e-07 rev/day^2
Epoch rev:           62117
Checksum:              295

Satellite: TO-31
Catalog number: 25396
Epoch time:      05237.49593121
Element set:     331
Inclination:      098.5223 deg
RA of node:       302.6487 deg
Eccentricity:    0.0001531
Arg of perigee:   008.8558 deg
Mean anomaly:     351.2659 deg
Mean motion:   14.23680139 rev/day
Decay rate:       -4.2e-07 rev/day^2
Epoch rev:           37027
Checksum:              295

Satellite: GO-32
Catalog number: 25397
Epoch time:      05236.76551870
Element set:    0820
Inclination:      098.5142 deg
RA of node:       299.3217 deg
Eccentricity:    0.0001390
Arg of perigee:   043.3916 deg
Mean anomaly:     316.7361 deg
Mean motion:   14.23085676 rev/day
Decay rate:     -.00000000 rev/day^2
Epoch rev:           37008
Checksum:              288

Satellite: UO-36
Catalog number: 25693
Epoch time:      05237.87135116
Element set:     516
Inclination:      064.5582 deg
RA of node:       069.7057 deg
Eccentricity:    0.0017355
Arg of perigee:   204.9314 deg
Mean anomaly:     155.1005 deg
Mean motion:   14.78529657 rev/day
Decay rate:        3.2e-07 rev/day^2
Epoch rev:           34212
Checksum:              302

Satellite: SO-41
Catalog number: 26545
Epoch time:      05237.43328877
Element set:     157
Inclination:      064.5563 deg
RA of node:       084.7271 deg
Eccentricity:    0.0053287
Arg of perigee:   295.2270 deg
Mean anomaly:     064.3344 deg
Mean motion:   14.80144137 rev/day
Decay rate:       2.16e-06 rev/day^2
Epoch rev:           26517
Checksum:              306

Satellite: MO-46
Catalog number: 26548
Epoch time:      05236.78130238
Element set:    0268
Inclination:      064.5577 deg
RA of node:       068.4073 deg
Eccentricity:    0.0049097
Arg of perigee:   288.5488 deg
Mean anomaly:     071.0246 deg
Mean motion:   14.82783817 rev/day
Decay rate:        8.1e-07 rev/day^2
Epoch rev:           26546
Checksum:              345

Satellite: SO-42
Catalog number: 26549
Epoch time:      05236.79956728
Element set:    0226
Inclination:      064.5595 deg
RA of node:       095.6676 deg
Eccentricity:    0.0055350
Arg of perigee:   298.9539 deg
Mean anomaly:     060.5986 deg
Mean motion:   14.79022113 rev/day
Decay rate:       7.13e-06 rev/day^2
Epoch rev:           26490
Checksum:              353

Satellite: NO-44
Catalog number: 26931
Epoch time:      05236.75020704
Element set:    0105
Inclination:      067.0531 deg
RA of node:       051.2048 deg
Eccentricity:    0.0005331
Arg of perigee:   264.4656 deg
Mean anomaly:     095.5765 deg
Mean motion:   14.29396663 rev/day
Decay rate:      -1.73e-06 rev/day^2
Epoch rev:           20356
Checksum:              287

